This is the latest recevied weather packets stored in our database for station/object KCKV. If no packets are shown the sender has not sent any weather packets the latest 10 day(s).
| Time | Temp. | Humidity | Pressure | Rain* | Wind** | Luminosity | Snow |
|---|---|---|---|---|---|---|---|
| 1778048607 | 13.89° C | 93% | 1007.5 hPa | - | - | - | - |
| 1778048006 | 13.89° C | 93% | 1007.8 hPa | - | - | - | - |
| 1778047411 | 15° C | 87% | 1007.5 hPa | - | - | - | - |
| 1778046808 | 15.56° C | 87% | 1007.5 hPa | - | - | - | - |
| 1778046212 | 16.67° C | 93% | 1007.8 hPa | - | - | - | - |
| 1778045605 | 17.78° C | 93% | 1007.1 hPa | - | - | - | - |
| 1778045007 | 18.89° C | 88% | 1007.1 hPa | - | - | - | - |
| 1778044407 | 20° C | 77% | 1007.1 hPa | - | - | - | - |
| 1778043809 | 20° C | 77% | 1007.1 hPa | - | - | - | - |
| 1778043206 | 18.89° C | 82% | 1006.4 hPa | - | - | - | - |
| 1778042609 | 18.89° C | 82% | 1006.4 hPa | - | - | - | - |
| 1778042008 | 18.89° C | 82% | 1007.1 hPa | - | - | - | - |
| 1778041408 | 18.89° C | 82% | 1007.1 hPa | - | - | - | - |
| 1778040810 | 18.89° C | 82% | 1006.4 hPa | - | - | - | - |
| 1778040328 | 18.89° C | 82% | 1006.4 hPa | - | - | - | - |
| 1778039605 | 17.78° C | 88% | 1007.1 hPa | - | - | - | - |
| 1778039013 | 17.78° C | 88% | 1007.1 hPa | - | - | - | - |
| 1778038412 | 17.78° C | 88% | 1007.1 hPa | - | - | - | - |
| 1778037810 | 17.78° C | 88% | 1007.1 hPa | - | - | - | - |
| 1778037207 | 17.78° C | 88% | 1007.1 hPa | - | - | - | - |
| 1778036605 | 17.78° C | 88% | 1007.1 hPa | - | - | - | - |
| 1778036006 | 17.78° C | 88% | 1006.8 hPa | - | - | - | - |
| 1778035406 | 17.78° C | 88% | 1006.8 hPa | - | - | - | - |
| 1778034805 | 17.78° C | 88% | 1006.8 hPa | - | - | - | - |
| 1778034208 | 17.78° C | 88% | 1006.8 hPa | - | - | - | - |
* Rain since midnight (hover to see other rain measurements)
** Current wind speed in m/s (hover to see current wind gust speed)